Snowfall_Accumulation
0.0 0.0 0.0 0.0 0.0 0.0 0.0 0.0 0.0 0.0 0.0 0.0 0.0 0.0 0.0 0.0 0.0 0.0 0.0 0.0 0.0 0.0 0.0 0.0 0.0 0.0 0.0 0.0 0.0 0.0 0.0 0.0 0.0 0.0 0.0 0.0 0.0 0.0 0.0 0.0 0.0 0.0 0.0 0.0 0.0 0.0 0.0
0.0 0.0 0.0 0.0 0.0 0.0 0.0 0.0 0.0 0.0 0.0 0.0 0.0 0.0 0.0 0.0 0.0 0.0 0.0 0.0 0.0 0.0 0.0 0.0 0.0 0.0 0.0 0.4 0.0 0.0 0.0 0.0 0.0 0.0 0.0 0.0 0.0 0.0 0.0 0.0 0.0 0.0 0.0 0.0 0.0 0.0 0.0
0.0 0.0 0.0 0.0 0.0 0.0 0.0 0.0 0.0 0.0 0.0 0.0 0.0 0.0 0.0 0.0 0.0 0.0 0.0 0.0 0.0 0.0 0.0 0.0 0.0 0.0 0.0 0.0 0.0 0.0 0.0 0.0 0.0 0.0 0.0 0.0 0.0 0.0 0.0 0.0 0.0 0.0 0.0 0.0 0.0 0.0 0.0
0.0 0.0 0.0 0.0 0.0 0.0 0.0 0.0 0.0 0.0 0.0 0.0 0.0 0.0 0.0 0.0 0.0 0.0 0.0 0.0 0.0 0.0 0.0 0.0 0.0 0.0 0.0 0.0 0.0 0.0 0.0 0.0 0.0 0.0 0.0 0.0 0.0 0.0 0.0 0.0 0.0 0.0 0.0 1.8 0.0 0.0 0.0
0.0 0.0 0.0 0.0 0.0 0.0 0.0 0.0 0.0 0.0 0.0 0.0 0.0 0.0 0.0 0.0 0.0 0.0 0.0 0.0 0.0 0.0 0.0 0.0 0.0 0.0 0.0 0.0 0.0 0.0 0.0 0.0 0.0 0.0 0.0 0.0 0.0 0.0 0.0 3.7 0.8 1.0 3.4 0.8 0.0 0.0 0.0
0.0 0.0 0.0 0.0 0.0 0.0 0.0 0.0 0.0 0.0 0.0 0.0 0.0 0.0 0.0 0.0 0.0 0.0 0.0 0.0 0.0 0.0 0.0 0.0 0.0 0.8 0.0 0.0 0.0 0.0 0.0 0.0 0.0 0.0 0.0 0.0 2.4 2.8 1.2 9.4 10.2 2.3 0.8 0.3 0.0 0.0 0.0
0.0 0.0 0.0 0.0 0.0 0.0 0.0 0.0 0.0 0.0 0.0 0.0 0.0 0.0 0.0 0.0 0.0 0.0 0.0 0.0 0.0 0.0 0.0 0.0 0.0 0.0 0.0 0.0 0.0 0.0 0.0 0.0 0.0 0.0 4.7 1.2 5.5 7.0 3.9 0.1 2.9 3.8 3.7 1.5 0.0 0.0 0.0
0.0 0.0 0.0 0.0 0.0 0.0 0.0 0.0 0.0 0.0 0.0 0.0 0.0 0.0 0.0 0.0 0.0 0.0 0.0 0.0 0.0 0.0 1.0 0.0 0.0 0.0 0.0 0.0 0.0 0.0 0.0 0.0 0.0 5.0 0.0 5.2 8.3 1.3 0.0 1.7 6.6 4.5 3.1 1.7 0.0 0.0 0.0
0.0 0.0 0.0 0.0 0.0 0.0 0.0 0.0 0.0 0.0 0.0 0.0 0.0 0.0 0.0 0.0 0.0 0.0 0.0 0.0 0.0 0.0 5.6 0.0 0.0 0.0 0.0 0.0 0.0 0.0 0.0 0.0 0.0 3.2 7.9 4.3 0.4 0.8 2.8 3.1 10.2 6.8 4.1 2.7 4.3 0.9 0.4
0.0 0.0 0.0 0.0 0.0 0.0 0.0 0.0 0.0 0.0 0.0 0.0 0.0 0.0 0.0 0.0 0.0 0.0 0.0 0.0 0.0 0.0 16.9 1.6 1.3 0.0 0.0 0.0 1.6 0.0 0.0 0.0 1.0 2.7 3.7 3.2 0.0 0.4 1.6 2.9 4.6 14.5 1.2 1.1 4.6 7.1 4.3
0.0 0.0 0.0 0.0 0.0 0.0 0.0 0.0 0.0 0.0 0.0 0.0 0.0 0.0 0.0 0.0 0.0 0.0 0.0 0.0 0.0 0.0 28.3 4.8 2.5 0.0 0.0 3.9 1.6 0.0 0.0 0.0 2.0 1.8 4.4 10.3 0.2 0.3 1.8 0.5 1.2 6.4 2.5 3.2 7.0 7.4 7.8
0.0 0.0 0.0 0.0 0.0 0.0 0.0 0.0 0.0 0.0 0.0 0.0 0.0 0.0 0.0 0.0 0.0 0.0 0.0 0.0 0.0 24.6 19.8 12.7 4.0 5.9 6.9 4.0 0.7 0.0 0.0 0.0 0.0 0.7 0.0 0.2 0.0 0.1 2.0 0.0 0.3 0.7 5.8 3.5 6.6 10.6 18.5
0.0 0.0 0.0 0.0 0.0 0.0 0.0 0.0 0.0 0.0 0.0 0.0 0.0 0.0 0.0 0.0 0.0 0.0 0.0 0.0 28.6 16.5 4.3 13.0 11.3 3.5 7.7 4.9 2.4 2.0 8.6 8.0 5.4 13.4 11.3 6.2 3.8 0.3 1.1 4.7 1.4 7.3 25.6 37.5 33.6 28.9 9.8
0.0 0.0 0.0 0.0 0.0 0.0 0.0 0.0 0.0 0.0 0.0 0.0 0.0 0.0 0.0 0.0 0.0 0.0 0.0 12.4 16.8 3.5 9.1 7.3 8.7 7.5 10.7 1.5 4.1 5.5 6.1 7.0 3.4 6.4 8.7 11.4 13.3 9.1 4.7 5.6 9.2 14.1 23.9 26.0 15.8 10.3 7.0
0.0 0.0 0.0 0.0 0.0 0.0 0.0 0.0 0.0 0.0 0.0 0.0 0.0 0.0 0.0 0.0 0.0 0.0 0.0 22.4 7.6 9.2 5.7 11.4 10.3 19.2 11.1 2.4 4.2 15.3 8.0 6.9 7.6 6.1 10.0 5.6 8.7 2.3 1.6 2.3 11.6 13.2 21.5 7.5 14.1 6.3 6.9
0.0 0.0 0.0 0.0 0.0 0.0 0.0 0.0 0.0 0.0 0.0 0.0 0.0 0.0 0.0 0.0 0.0 0.0 5.3 12.4 3.7 4.1 5.7 8.1 11.5 6.6 12.1 8.6 10.9 9.4 10.2 7.8 3.8 3.0 1.9 8.2 7.3 3.5 0.9 0.4 2.2 8.2 5.9 17.4 24.0 18.8 12.6
0.0 0.0 0.0 0.0 0.0 0.0 0.0 0.0 0.0 0.0 0.0 0.0 0.0 0.0 0.0 0.0 0.0 0.0 17.9 4.9 1.4 1.6 4.7 5.6 4.3 3.7 1.4 5.8 4.6 6.5 10.2 12.1 5.2 2.3 2.5 4.3 6.9 4.8 1.6 7.8 9.2 10.2 20.2 17.0 14.1 9.6 15.9
0.0 0.0 0.0 0.0 0.0 0.0 0.0 0.0 0.0 0.0 0.0 0.0 0.0 7.1 0.0 0.0 1.6 6.8 10.1 2.2 1.3 0.0 0.0 1.1 0.1 0.7 1.6 1.3 5.8 6.3 9.2 9.0 2.5 0.8 3.1 4.5 6.5 9.6 6.3 3.2 4.7 8.2 9.6 8.1 21.7 11.8 12.9
0.0 0.0 0.0 0.0 0.0 0.0 0.0 0.0 0.0 0.0 0.0 0.0 0.0 4.4 0.0 0.0 14.1 5.5 0.0 0.3 0.0 3.2 1.5 0.0 1.7 0.9 0.0 1.6 3.2 2.7 2.9 3.2 0.1 1.4 2.2 3.5 7.6 8.0 7.4 4.8 5.0 9.4 8.0 6.1 6.5 14.1 15.5
0.0 0.0 0.0 0.0 0.0 0.0 0.0 0.0 0.0 0.0 0.0 0.0 0.0 15.0 0.0 0.0 0.0 0.3 1.0 2.9 2.5 0.0 0.3 0.5 0.6 0.3 0.2 1.4 0.6 0.6 1.2 2.1 0.0 0.0 0.9 0.3 2.5 9.9 9.3 9.7 11.3 10.7 8.3 6.5 13.6 19.5 14.1
0.0 0.0 0.0 0.0 0.0 0.0 0.0 0.0 0.0 0.0 0.0 0.0 0.1 6.4 0.0 7.5 2.8 0.7 3.4 3.1 3.9 6.5 0.4 0.2 2.6 1.4 3.1 2.8 0.6 0.7 0.6 1.7 2.7 3.1 3.2 2.5 3.9 0.5 2.7 1.1 2.8 9.6 9.9 10.4 17.2 12.1 17.0
0.0 0.0 0.0 0.0 0.0 0.0 0.0 0.0 0.0 0.0 0.0 0.0 2.9 3.0 0.0 0.0 0.0 0.0 0.1 3.4 4.7 1.1 1.4 0.6 1.4 0.4 1.5 4.8 3.3 2.2 1.5 1.5 2.6 1.9 4.7 3.3 5.0 0.8 4.2 0.1 4.0 6.9 3.1 6.0 7.5 8.3 12.1
0.0 0.0 0.0 0.0 0.0 0.0 0.0 0.0 0.0 0.0 0.0 0.6 0.0 0.0 2.2 0.0 0.0 0.0 1.1 1.2 0.1 0.7 0.0 0.7 1.3 1.3 0.3 0.5 1.4 1.5 1.0 0.5 1.8 3.2 1.7 2.3 2.8 4.0 8.6 1.4 3.4 5.9 4.8 1.8 5.2 6.2 7.2
0.0 0.0 0.0 0.0 0.0 0.0 0.0 0.0 0.0 0.0 0.0 0.0 0.3 2.8 6.0 1.4 0.3 0.4 1.0 0.2 0.2 0.3 1.5 0.0 0.6 1.3 0.5 0.0 0.0 0.0 0.0 0.0 0.0 0.1 0.2 1.7 2.2 3.7 7.3 2.0 7.3 2.5 1.0 0.9 3.2 6.0 5.0
0.0 0.0 0.0 0.0 0.0 0.0 0.0 0.0 0.0 0.0 0.0 0.0 0.0 5.7 6.4 4.7 0.4 0.1 0.4 0.5 0.3 0.3 0.6 0.2 0.1 0.0 0.0 0.0 1.0 1.1 0.5 0.3 0.3 0.1 0.4 0.0 1.0 6.5 6.3 5.3 1.9 2.6 2.1 1.8 2.5 3.4 3.6
0.0 0.0 0.0 0.0 0.0 0.0 0.0 0.0 0.0 0.0 0.0 0.0 0.0 0.0 6.8 9.6 0.3 0.2 0.8 0.1 2.1 1.1 0.5 0.1 0.0 0.0 0.0 0.3 3.6 4.1 2.4 0.2 0.8 1.5 0.6 0.1 0.2 4.3 4.4 5.5 2.7 1.1 0.9 1.5 3.2 4.0 2.7
0.0 0.0 0.0 0.0 0.0 0.0 0.0 0.0 0.0 0.0 0.0 0.0 0.0 0.0 7.9 12.1 0.8 1.4 1.7 3.5 2.2 1.5 2.0 0.0 0.0 0.0 0.0 2.2 3.3 1.6 1.3 0.8 0.8 0.5 0.4 0.9 3.0 7.0 4.6 7.8 1.9 1.2 0.5 0.9 3.9 3.8 1.2
0.0 0.0 0.0 0.0 0.0 0.0 0.0 0.0 0.0 0.0 0.0 0.0 0.0 0.0 7.0 8.5 1.8 0.8 2.2 3.1 2.2 2.1 2.1 1.2 0.5 1.0 0.5 5.8 5.0 2.6 3.0 0.9 0.8 0.8 0.4 0.3 2.2 3.1 4.7 7.2 7.3 1.7 0.1 0.5 3.5 1.3 0.8
0.0 0.0 0.0 0.0 0.0 0.0 0.0 0.0 0.0 0.0 0.0 0.0 1.4 0.0 0.0 10.7 3.3 0.3 1.5 1.3 1.0 0.1 2.5 1.1 1.1 1.6 3.0 4.6 4.3 3.1 1.4 1.7 2.5 4.0 1.1 2.3 3.6 3.7 4.7 6.0 6.4 3.8 4.6 3.7 3.1 1.8 1.4